TimeCST,TemperatureF,Dew PointF,Humidity,Sea Level PressureIn,VisibilityMPH,Wind Direction,Wind SpeedMPH,Gust SpeedMPH,PrecipitationIn,Events,Conditions,WindDirDegrees,DateUTC
12:52 AM,37.9,28.0,68,30.43,10.0,North,4.6,-,N/A,,Clear,360,2012-11-17 06:52:00
1:52 AM,33.1,27.0,78,30.43,10.0,North,4.6,-,N/A,,Clear,350,2012-11-17 07:52:00
2:52 AM,34.0,28.0,79,30.43,9.0,Calm,Calm,-,N/A,,Clear,0,2012-11-17 08:52:00
3:52 AM,33.1,28.0,82,30.43,9.0,Calm,Calm,-,N/A,,Clear,0,2012-11-17 09:52:00
4:52 AM,28.9,26.1,89,30.44,8.0,North,3.5,-,N/A,,Clear,350,2012-11-17 10:52:00
5:52 AM,28.9,25.0,85,30.45,9.0,North,3.5,-,N/A,,Clear,10,2012-11-17 11:52:00
6:52 AM,30.0,26.1,85,30.47,5.0,Calm,Calm,-,N/A,,Clear,0,2012-11-17 12:52:00
7:52 AM,35.1,30.0,82,30.47,5.0,Calm,Calm,-,N/A,,Haze,0,2012-11-17 13:52:00
8:52 AM,43.0,34.0,71,30.49,9.0,East,4.6,-,N/A,,Clear,90,2012-11-17 14:52:00
9:52 AM,46.9,34.0,61,30.49,10.0,SE,3.5,-,N/A,,Clear,130,2012-11-17 15:52:00
10:52 AM,50.0,33.1,52,30.48,10.0,Calm,Calm,-,N/A,,Clear,0,2012-11-17 16:52:00
11:52 AM,54.0,33.1,45,30.45,10.0,Calm,Calm,-,N/A,,Clear,0,2012-11-17 17:52:00
12:52 PM,57.0,33.1,40,30.42,10.0,Calm,Calm,-,N/A,,Clear,0,2012-11-17 18:52:00
1:52 PM,59.0,32.0,36,30.40,10.0,Calm,Calm,-,N/A,,Clear,0,2012-11-17 19:52:00
2:52 PM,59.0,32.0,36,30.40,10.0,East,6.9,-,N/A,,Clear,80,2012-11-17 20:52:00
3:52 PM,57.0,32.0,39,30.40,10.0,ENE,5.8,-,N/A,,Clear,70,2012-11-17 21:52:00
4:52 PM,54.0,32.0,43,30.40,10.0,Calm,Calm,-,N/A,,Clear,0,2012-11-17 22:52:00
5:52 PM,48.9,33.1,54,30.40,10.0,NE,3.5,-,N/A,,Clear,40,2012-11-17 23:52:00
6:52 PM,46.9,33.1,59,30.41,10.0,Calm,Calm,-,N/A,,Clear,0,2012-11-18 00:52:00
7:52 PM,41.0,33.1,73,30.41,10.0,Calm,Calm,-,N/A,,Clear,0,2012-11-18 01:52:00
8:52 PM,41.0,33.1,73,30.41,10.0,Calm,Calm,-,N/A,,Clear,0,2012-11-18 02:52:00
9:52 PM,37.9,32.0,79,30.41,10.0,Calm,Calm,-,N/A,,Clear,0,2012-11-18 03:52:00
10:52 PM,36.0,30.9,82,30.41,10.0,Calm,Calm,-,N/A,,Clear,0,2012-11-18 04:52:00
11:52 PM,35.1,32.0,89,30.39,10.0,Calm,Calm,-,N/A,,Clear,0,2012-11-18 05:52:00